User: anonymous
Location: Unspecified
(0.0000°N, 0.0000°E)
Time: 15:42:57
(UTC+00:00)
Language:

Altair - Orbit

View from above orbital plane
View from above orbital plane
View from above satellite
View from above satellite

Ground track
Ground track

The orbit data is extracted from the following two-line orbital elements,

1 00050U 60009B   14232.41817680 -.00000153  00000-0 -62646-3 0   907
2 00050 047.2286 245.8646 0113060 103.8267 257.5131 12.20084212410864
Epoch (UTC): 20 August 2014 10:02:10
Eccentricity: 0.0113060
inclination: 47.2286°
perigee height: 1502 km
apogee height: 1682 km
right ascension of ascending node: 245.8646°
argument of perigee: 103.8267°
revolutions per day: 12.20084212
mean anomaly at epoch: 257.5131°
orbit number at epoch: 41086

The dashed part of the orbit path shows where the satellite is in the earth's shadow,  

DLR